STARLINK-2422, 47832

Orbit data source: Space-Track

STARLINK-2422, 47832 is a payload satellite owned by SpaceX/Seattle (US) in LEO that was launched on Thu, 11 Mar 2021 UTC via an FALCON 9 launch vehicle from the Air Force Eastern Test Range (AFETR). Payload-class satellites include a variety of spacecraft equipped with specific instruments for various scientific and technological missions. These include communications satellites like Starlink; space stations such as the ISS; scientific satellites like the Hubble; Earth observation satellites from companies like Planet Labs, Umbra, and HawkEye 360; GPS; miniature CubeSats for education and research; and military/defense satellites.

Loading next visibility...
Identifier
47832, 2021-018AX
Orbit
LEO
Country
Flag of USUS
Related business
Manufacturer
SpaceX/Seattle
Mission
Operational Commercial Communications
Bus & Motor
STARLINK, Unknown motor
Mass
260 kg wet, ~248 kg dry
Launch date (UTC)
2021-03-11 (5 years ago)
Launch vehicle
FALCON 9
Launch site
Air Force Eastern Test Range (AFETR)
Object type
Payload
Rocket body
Debris
Shape & HBR
Box + 1 Pan, 10.1 m
Radar Cross Section
13.562 m², Large (>1 m²)

Expand to show TLE details & history
Last TLE update: 23 hours ago

TLE from 23 hours ago
0 STARLINK-2422
1 47832U 21018AX  25292.04277358 -.00002967  00000-0 -18034-3 0  9997
2 47832  53.0531 167.4969 0001270  85.0338 275.0796 15.06401111255246
Epoch: 2025-10-19T01:01Z
TLE epoch observation values (Epoch: 2025-10-19T01:01:35.637Z)
Latitude
-0.00001°
Longitude
124.33329°
Altitude
548.009 km
Speed
7.589 km/s
True Right ascension
11h 09m 59s
True Declination
0° 00' 00"
Sunlit
Object was in daylight at epoch
Visualization orbit readout
Latitude
Unknown
Longitude
Unknown
Altitude
Unknown
Speed
Unknown
Apparent Right ascension
Unknown
Apparent Declination
Unknown
Sunlit
N/A
Visualization observer readout
Local Sidereal Time
19:00:57
Azimuth
Unknown
Elevation
Unknown
Doppler factor
Unknown
Orbital elements
Apogee altitude
548.359 km
Perigee altitude
546.6 km
Semi-major axis
6,925.616 km
Eccentricity
0.00013
Inclination
53.0531°
RAAN
167.4969°
Arg. of periapsis
85.0338°
True anomaly
275.0651°
Mean anomaly
275.0796°
Eccentric anomaly
275.07235°
Mean motion
3.76579 °/min
Orbital period
95.6 mins
BSTAR
-0.00018034
Loading maneuver chart data...
Computing Atmospheric mass density...

Documentation

Showing up to 5 results
|